Find Starlink 32118

NORAD ID: 60280 Int'l Des: 2024-132 Owner: SPXS Country: US Constellation: starlink operational
LEOCIRCULAR

現在のビュー

3D地球を読み込み中...

About Starlink 32118

Starlink 32118 (NORAD 60280) is a starlink constellation satellite (v2 mini) launched Jul 28, 2024 by SPXS of US. It operates in LEO, CIRCULAR orbit with a mass of 730.00 kg.

Starlink 32118について

説明を読み込み中...

次回通過

Passes for default location (London). Set your location on the main map for personalized predictions.

高度履歴

Loading altitude history...

軌道要素

1 60280U 24132C 26168.62808299 .00001092 00000-0 48992-4 0 9993
2 60280 53.1615 308.0678 0001140 103.1160 256.9968 15.30190226106864
Epoch: Jun 17, 2026 • Age: 18 hours

現在のステータス

高度 481.0 km
速度 7.63 km/s
衛星直下点 53.18°N, 7.94°W
打ち上げ日 Jul 28, 2024
運用期間 1.8 years
タイプ internet

技術仕様

分類 Payload
質量 730.00 kg
乾燥質量 700.00 kg
総質量 730.00 kg
長さ 0.30 m
直径 4.10 m
スパン 29.00 m
形状 Box + pan
製造者 SPXS
バスタイプ Starlink V2M
フェーズステータス In Orbit
所有者/国 SPXS/US

Most Searched